DW7533 Weather Reports


time (UTC)temp
C
wind
direction
speed
KPH
gust
KPH
rain 1hr
cm
rain 24hr
cm
rain mn
cm
humidity
%
barometer
mb
20260505023806 17 68 4.8 14.5 0.00 0.03 0.03 77 1029.1
20260505023305 17 120 8.0 9.7 0.00 0.03 0.03 77 1029.1
20260505022805 17 82 4.8 8.0 0.00 0.03 0.03 78 1029.1
20260505022305 16 115 3.2 8.0 0.00 0.03 0.03 80 1029.1
20260505021805 16 107 3.2 4.8 0.00 0.03 0.03 81 1029.1
20260505021306 16 47 3.2 8.0 0.00 0.03 0.03 82 1029.1
20260505020804 16 113 4.8 9.7 0.00 0.03 0.03 82 1029.2
20260505015804 15 62 4.8 8.0 0.00 0.03 0.03 83 1029.2
20260505015306 15 16 6.4 11.3 0.00 0.03 0.03 83 1029.2
20260505014805 15 54 1.6 4.8 0.00 0.03 0.03 85 1029.2
20260505014307 15 16 3.2 4.8 0.00 0.03 0.03 85 1029.3
20260505013304 14 73 3.2 8.0 0.00 0.03 0.03 87 1029.5
20260505012806 13 57 4.8 8.0 0.00 0.03 0.03 87 1029.5
20260505012305 13 50 1.6 4.8 0.00 0.03 0.03 89 1029.5
20260505011805 13 49 3.2 4.8 0.00 0.03 0.03 89 1029.3
20260505010805 12 67 0.0 1.6 0.00 0.03 0.03 93 1029.3
20260505010306 12 67 1.6 3.2 0.00 0.03 0.03 93 1029.3
20260505005304 11 18 1.6 4.8 0.00 0.03 0.03 96 1029.1
20260505004805 10 14 1.6 3.2 0.00 0.03 0.03 97 1029.1
20260505004306 9 14 0.0 1.6 0.00 0.03 0.03 96 1029.1
20260505003805 9 14 0.0 1.6 0.00 0.03 0.03 98 1029.1
20260505003305 8 14 1.6 1.6 0.00 0.03 0.03 98 1029.1
20260505002805 8 14 0.0 0.0 0.03 0.03 0.03 100 1029.1
20260505002305 7 14 0.0 1.6 0.03 0.03 0.03 99 1029.1
20260505001805 6 14 0.0 1.6 0.03 0.03 0.03 99 1029.1
20260505000804 6 113 0.0 1.6 0.03 0.03 0.03 99 1028.8
20260505000305 5 113 0.0 1.6 0.03 0.03 0.03 99 1028.8
20260504235805 5 113 0.0 1.6 0.03 0.03 0.03 99 1028.8
20260504235306 5 113 0.0 1.6 0.03 0.03 0.03 99 1028.8
20260504234805 4 113 0.0 1.6 0.03 0.03 0.03 99 1028.8
20260504233804 4 112 0.0 1.6 0.03 0.03 0.03 98 1028.8
20260504233306 3 112 0.0 1.6 0.03 0.03 0.03 99 1028.7
20260504232806 3 89 0.0 1.6 0.00 0.00 0.00 98 1028.6
20260504232305 3 123 0.0 1.6 0.00 0.00 0.00 98 1028.6
20260504231806 3 65 0.0 0.0 0.00 0.00 0.00 98 1028.6
20260504231305 3 2 0.0 0.0 0.00 0.00 0.00 98 1028.6
20260504230306 3 2 0.0 0.0 0.00 0.00 0.00 97 1028.3
20260504225805 3 2 0.0 1.6 0.00 0.00 0.00 97 1028.3
20260504225304 3 2 0.0 1.6 0.00 0.00 0.00 97 1028.0
20260504224306 3 2 0.0 0.0 0.00 0.00 0.00 97 1028.0
20260504223805 3 2 0.0 0.0 0.00 0.00 0.00 97 1028.0
20260504223305 3 2 0.0 0.0 0.00 0.00 0.00 97 1028.0
20260504222805 3 2 0.0 0.0 0.00 0.00 0.00 97 1028.1
20260504221806 3 2 0.0 0.0 0.00 0.00 0.00 97 1028.0
20260504221306 3 2 0.0 0.0 0.00 0.00 0.00 97 1028.0
20260504220805 3 2 0.0 1.6 0.00 0.00 0.00 97 1028.0
20260504220305 3 2 0.0 0.0 0.00 0.00 0.00 97 1028.0
20260504215805 3 2 0.0 0.0 0.00 0.00 0.00 97 1028.0
20260504214305 3 2 0.0 1.6 0.00 0.00 0.00 97 1028.0
20260504213806 3 2 0.0 0.0 0.00 0.00 0.00 97 1027.9
20260504213304 3 2 0.0 1.6 0.00 0.00 0.00 97 1027.9
20260504212805 3 2 0.0 1.6 0.00 0.00 0.00 97 1027.9
20260504212306 3 2 0.0 1.6 0.00 0.00 0.00 96 1027.8
20260504211805 3 2 0.0 3.2 0.00 0.00 0.00 97 1027.8
20260504210806 4 2 0.0 1.6 0.00 0.00 0.00 96 1027.8
20260504210306 4 2 0.0 1.6 0.00 0.00 0.00 96 1027.8
20260504205805 4 2 0.0 1.6 0.00 0.00 0.00 97 1027.8
20260504205305 4 2 1.6 1.6 0.00 0.00 0.00 97 1027.5
20260504204305 4 33 0.0 1.6 0.00 0.03 0.00 96 1027.5
20260504203805 4 33 0.0 0.0 0.00 0.03 0.00 96 1027.5
20260504203305 4 33 0.0 1.6 0.00 0.03 0.00 96 1027.5
20260504202806 4 33 0.0 1.6 0.00 0.03 0.00 96 1027.5
20260504202305 4 33 1.6 1.6 0.00 0.03 0.00 96 1027.5
20260504201305 5 27 1.6 3.2 0.00 0.03 0.00 96 1027.5
20260504200306 5 27 0.0 1.6 0.00 0.03 0.00 96 1027.5
20260504195804 5 27 0.0 3.2 0.00 0.03 0.00 96 1027.5
20260504195304 5 27 1.6 3.2 0.00 0.03 0.00 96 1027.5
20260504194806 5 33 1.6 3.2 0.00 0.03 0.00 96 1027.5
20260504194305 5 33 0.0 3.2 0.00 0.03 0.00 96 1027.5
20260504193804 5 30 1.6 3.2 0.00 0.03 0.00 96 1027.5
20260504192805 5 310 0.0 1.6 0.00 0.03 0.00 96 1027.5
20260504192305 5 310 0.0 1.6 0.00 0.03 0.00 96 1027.5
20260504191805 5 310 1.6 1.6 0.00 0.03 0.00 96 1027.5
20260504191305 5 310 0.0 1.6 0.00 0.03 0.00 96 1027.9
20260504190805 5 310 1.6 3.2 0.00 0.03 0.00 96 1027.9
20260504190305 5 224 0.0 3.2 0.00 0.03 0.00 95 1027.9
20260504185806 5 224 0.0 1.6 0.00 0.03 0.00 96 1027.9
20260504185305 5 224 1.6 3.2 0.00 0.03 0.00 95 1027.9
20260504184805 5 224 0.0 0.0 0.00 0.03 0.00 95 1027.9
20260504184305 5 224 0.0 0.0 0.00 0.03 0.00 96 1027.9
20260504183806 5 224 0.0 1.6 0.00 0.03 0.00 95 1027.9
20260504183305 5 224 0.0 1.6 0.00 0.03 0.00 95 1027.9
20260504182804 5 224 0.0 4.8 0.00 0.03 0.00 95 1027.9
20260504181805 5 83 0.0 0.0 0.00 0.03 0.00 95 1027.9
20260504181305 5 83 0.0 0.0 0.00 0.03 0.00 95 1027.9
20260504180805 6 83 0.0 0.0 0.00 0.03 0.00 95 1027.9
20260504175806 6 83 0.0 0.0 0.00 0.03 0.00 95 1027.9
20260504175305 6 83 0.0 0.0 0.00 0.03 0.00 95 1027.9
20260504174806 6 83 0.0 0.0 0.00 0.03 0.00 94 1027.9
20260504174306 6 83 0.0 0.0 0.00 0.03 0.00 94 1027.9
20260504173805 6 83 0.0 0.0 0.00 0.03 0.00 95 1027.9
20260504172807 6 83 0.0 0.0 0.00 0.03 0.00 94 1027.9
20260504171305 6 83 0.0 1.6 0.00 0.03 0.00 94 1027.9
20260504170806 6 83 0.0 1.6 0.00 0.03 0.00 94 1027.9
20260504170304 6 83 0.0 1.6 0.00 0.03 0.00 94 1027.9
20260504160305 7 83 1.6 3.2 0.00 0.03 0.00 94 1028.3
20260504150804 8 83 1.6 1.6 0.00 0.03 0.03 92 1028.2
20260504150305 8 83 0.0 1.6 0.00 0.03 0.03 92 1028.2
20260504141305 10 83 0.0 0.0 0.00 0.05 0.03 91 1028.2
20260504140806 10 83 0.0 0.0 0.00 0.05 0.03 91 1028.2
20260504140305 10 83 0.0 0.0 0.00 0.05 0.03 91 1028.2
20260504130804 11 83 0.0 3.2 0.00 0.05 0.03 91 1027.9
20260504130305 12 83 1.6 3.2 0.00 0.05 0.03 90 1027.9
20260504120305 13 101 0.0 1.6 0.00 0.05 0.03 90 1027.9
20260504100305 16 66 0.0 0.0 0.00 0.05 0.03 80 1027.1
20260504081305 18 154 1.6 4.8 0.00 0.05 0.03 76 1026.9
20260504080805 18 146 4.8 8.0 0.00 0.05 0.03 74 1026.9
20260504045305 18 82 3.2 4.8 0.00 0.05 0.03 70 1028.5
20260504044804 18 163 1.6 3.2 0.00 0.05 0.03 73 1028.5
20260504044305 18 103 1.6 3.2 0.00 0.05 0.03 75 1028.5
20260504043804 18 126 1.6 3.2 0.00 0.05 0.03 73 1028.5
20260504043305 18 154 1.6 1.6 0.00 0.05 0.03 77 1028.5
20260504042805 17 166 1.6 3.2 0.00 0.05 0.03 78 1028.5
20260504042305 17 186 1.6 3.2 0.00 0.05 0.03 79 1028.5
20260504041805 17 204 1.6 4.8 0.00 0.05 0.03 78 1028.5
20260504041304 17 134 1.6 4.8 0.00 0.05 0.03 78 1028.5
20260504040805 17 99 1.6 3.2 0.00 0.05 0.03 78 1028.5
20260504035804 18 82 3.2 8.0 0.00 0.05 0.03 77 1028.6
20260504035305 18 341 0.0 4.8 0.00 0.05 0.03 77 1029.3
20260504034806 17 56 4.8 9.7 0.00 0.05 0.03 79 1029.3
20260504034305 17 267 1.6 4.8 0.00 0.05 0.03 79 1029.3
20260504033805 17 211 3.2 4.8 0.00 0.05 0.03 80 1029.3
20260504033306 17 129 3.2 4.8 0.00 0.05 0.03 81 1029.3
20260504032806 17 197 3.2 4.8 0.00 0.05 0.03 82 1029.3
20260504032305 17 176 3.2 4.8 0.00 0.05 0.03 81 1029.3
20260504031304 17 116 1.6 9.7 0.00 0.05 0.03 83 1029.3
20260504030805 17 89 1.6 4.8 0.00 0.05 0.03 83 1029.3
20260504025805 16 337 1.6 4.8 0.00 0.05 0.03 85 1029.4
20260504025304 16 345 1.6 4.8 0.00 0.05 0.03 84 1029.4
20260504024805 16 206 3.2 4.8 0.00 0.05 0.03 85 1029.5